Location: Unspecified
(51.0950°N, 12.9690°E)
Time: 13:20:47
(UTC+00:00)

NOAA 15 - Visible Passes

Search period start: 13 April 2024 00:00
Search period end: 23 April 2024 00:00
Orbit: 795 x 811 km, 98.6° (Epoch: 13 April)

Date Brightness Start Highest point End Pass type
(mag) Time Alt. Az. Time Alt. Az. Time Alt. Az.
13 Apr 6.8 18:52:28 10° SSW 18:56:56 27° W 19:01:25 10° NW visible
15 Apr 7.7 19:44:33 10° W 19:46:03 11° W 19:47:33 10° WNW visible
16 Apr 7.3 19:16:23 10° SW 19:19:59 18° W 19:23:35 10° NW visible
17 Apr 6.7 18:49:29 10° SSW 18:54:01 29° W 18:58:34 10° NW visible
19 Apr 7.6 19:41:15 10° WSW 19:43:07 12° W 19:44:59 10° WNW visible
20 Apr 7.2 19:13:21 10° SW 19:17:04 19° W 19:20:47 10° NW visible
21 Apr 6.6 18:46:31 10° SSW 18:51:06 30° W 18:55:43 10° NNW visible
